Location: Colonia Buena Vista
(32.5167°N, 116.9833°W)
Time: 19:07:04
(UTC+00:00)

Daily predictions for brighter satellites

Satellite Brightness Start Highest point End
(mag) Time Altitude Azimuth Time Altitude Azimuth Time Altitude Azimuth
ATLAS 5 CENTAUR R/B 2.3 12:05:18 42° NE 12:05:18 42° NE 12:08:08 10° NNE
CZ-2C R/B 4.0 12:07:09 10° SSE 12:08:27 11° SE 12:09:51 10° SE
NOSS 3-4 (A) 3.2 12:09:11 58° SW 12:10:25 87° WNW 12:16:29 10° NNE
NOSS 3-4 (C) 3.2 12:09:14 57° SSW 12:10:31 88° WNW 12:16:35 10° NNE
CZ-2C R/B 4.2 12:06:11 10° N 12:07:32 18° NNW 12:07:32 18° NNW
Milstar 3 Cent rocket 2.1 12:11:55 54° S 12:12:08 55° S 12:16:37 10° ESE
Meteor 1-31 Rocket 4.0 12:17:19 10° NNE 12:20:58 41° E 12:24:34 10° S
CZ-4C R/B 1.9 12:23:22 53° WNW 12:23:28 53° NW 12:28:46 10° NNE
Cosmos 2322 4.1 12:18:20 10° NNW 12:23:57 63° ENE 12:29:32 10° SSE
FENGYUN 3A 3.6 12:18:40 10° N 12:24:02 63° WNW 12:25:55 39° SW
ATLAS 2AS CENTAUR R/B 3.1 12:18:18 14° SSW 12:25:13 79° ESE 12:33:07 10° NNE
ADEOS 4.0 12:20:34 10° NNE 12:25:45 62° ESE 12:30:54 10° S
Cosmos 1805 Rocket 3.4 12:21:38 10° N 12:26:06 80° W 12:30:31 10° S
Landsat 5 3.1 12:23:28 10° S 12:27:16 83° WSW 12:31:08 10° NNW
Delta 2 Rocket 3.9 12:26:45 47° NW 12:27:50 61° N 12:32:55 10° E
Meteor 2-17 Rocket 4.3 12:24:44 10° N 12:30:46 74° W 12:36:47 10° S
Cosmos 1437 Rocket 3.0 12:32:27 10° S 12:36:31 71° E 12:40:33 10° NNE
NOSS 7 (H) 4.5 12:39:14 33° SSW 12:40:52 87° ESE 12:44:07 10° NNE
Cosmos 1484 Rocket 3.7 12:39:30 10° N 12:41:55 30° NW 12:41:55 30° NW
Meteor 1-20 Rocket 4.4 12:38:19 10° N 12:44:05 81° E 12:49:54 10° S
Cosmos 1782 2.8 12:40:25 10° S 12:44:19 78° E 12:48:16 10° N
Sich 1 2.9 12:40:05 10° NNW 12:44:27 64° W 12:48:45 10° S
GPS 2-04 Rocket1 3.0 12:45:07 37° NW 12:46:08 50° N 12:49:52 10° ENE
Cosmos 2360 Rocket 2.8 12:46:08 22° WNW 12:48:46 33° WSW 12:53:45 10° SSW
Cosmos 1666 Rocket 3.6 12:45:24 10° N 12:49:47 82° E 12:54:12 10° S
CZ-3 R/B 3.1 12:36:22 19° WSW 12:52:41 61° S 12:59:11 10° E
Sakura Rocket 3.4 12:52:23 29° WSW 12:53:53 42° S 12:57:24 10° ESE
Cosmos 2333 4.2 12:49:17 10° NNW 12:54:58 59° WSW 13:00:36 10° S
Cosmos 2237 Rocket 4.4 12:50:55 10° N 12:55:36 26° ENE 13:00:13 10° ESE
USA 238 DEB 3.9 12:53:43 10° NW 13:01:05 71° WSW 13:08:40 10° SSE
USA 238 3.9 12:53:49 10° NW 13:01:12 71° WSW 13:08:47 10° SSE
Cosmos 1954 Rocket 4.1 12:56:05 10° SSW 13:01:21 83° ESE 13:06:38 10° NNE
H-2A R/B 2.1 12:59:30 10° S 13:03:39 51° W 13:07:45 10° NNW
CZ-4B R/B 2.1 13:03:00 10° SSE 13:06:03 50° ENE 13:09:02 10° N
Cosmos 2227 Rocket 2.8 13:01:41 10° S 13:07:15 60° ESE 13:12:50 10° NNE
Cosmos 1151 Rocket 3.3 13:03:21 10° SSW 13:07:27 42° W 13:11:33 10° N
Cosmos 407 Rocket 4.1 13:03:39 14° SW 13:07:35 35° WNW 13:12:18 10° N
CZ-4B R/B 4.2 13:07:23 10° N 13:10:44 35° WNW 13:14:03 10° SW
SKYMED 2 3.5 13:09:35 10° SSE 13:13:55 89° WSW 13:18:16 10° NNW
Cosmos 2333 Rocket 2.4 13:10:04 10° NNW 13:15:36 48° WSW 13:21:06 10° S
ALOS 3.9 13:16:38 10° NNW 13:19:16 15° WNW 13:20:25 14° W
Skynet4D Del rocket 4.1 13:15:46 14° WSW 13:20:09 46° S 13:25:14 10° ESE
Cosmos 2074 Rocket 4.0 13:14:06 10° NNW 13:20:14 65° W 13:26:21 10° S
Cosmos 1633 Rocket 3.2 13:17:14 10° NNW 13:21:27 49° W 13:25:39 10° SSW
Centaur D AC-25 3.4 13:12:01 14° W 13:21:41 56° S 13:25:28 10° ESE
Cosmos 2297 Rocket 2.1 13:16:54 10° SSW 13:22:32 75° WNW 13:28:11 10° NNE
Cosmos 1602 3.9 13:19:29 10° NNW 13:23:15 48° W 13:26:59 10° SSW
OAO 3 Rocket 3.4 13:20:01 13° WNW 13:24:19 69° N 13:29:06 10° E
Cosmos 676 Rocket 4.1 13:20:20 10° SSW 13:25:33 58° WNW 13:30:47 10° N
YAOGAN 6 2.6 13:22:07 10° NNE 13:25:36 82° E 13:29:04 10° S
Cosmos 2154 Rocket 4.1 13:20:37 10° N 13:26:52 88° E 13:33:10 10° S
Cosmos 2219 Rocket 2.6 13:27:34 10° NW 13:32:48 39° WSW 13:38:01 10° S
Lacrosse 5 2.1 13:28:10 10° NW 13:33:05 52° SW 13:37:58 10° SSE
Cosmos 1980 4.1 13:34:51 10° NNW 13:40:31 70° ENE 13:46:08 10° SSE
CENTAUR R/B 3.6 13:35:08 10° NW 13:43:18 49° WSW 13:51:43 10° S
Envisat 3.0 13:38:51 10° N 13:43:53 65° WNW 13:48:53 10° SSW
USA 234 4.4 13:39:23 10° S 13:44:10 22° WSW 13:48:59 10° WNW
Cosmos 1812 3.1 13:42:09 10° SSW 13:45:45 40° W 13:49:23 10° N
Cosmos 2184 Rocket 4.5 13:40:29 10° NNW 13:46:20 40° W 13:52:12 10° SSW
COSMOS 2428 3.3 13:41:30 10° NW 13:46:39 36° WSW 13:51:48 10° SSW
